�N����,����,�~����,�C��,���x,�C��,����,���ϕ���,�ő�u�ԕ���,�ő厞����,���˗�,�I�_���x,�n�����x,�ő啗���N��,DTYPE
"20/04/28","00:10",0.0,10.6,68.0,1013.5,325.4,2.0,2.7,332.3,0.00,5.0,14.0,"00:07:36",1
"20/04/28","00:20",0.0,10.3,68.7,1013.0,331.6,1.5,2.2,325.2,0.00,4.8,13.9,"00:14:24",1
"20/04/28","00:30",0.0,9.9,69.3,1013.0,298.1,1.6,2.6,316.1,0.00,4.6,13.9,"00:28:00",1
"20/04/28","00:40",0.0,9.5,70.2,1012.8,297.2,1.7,2.4,305.2,0.00,4.4,13.9,"00:37:44",1
"20/04/28","00:50",0.0,9.4,70.9,1013.0,305.8,2.1,3.5,323.6,0.00,4.4,13.8,"00:44:24",1
"20/04/28","01:00",0.0,9.4,71.5,1012.6,308.5,1.7,2.7,314.5,0.00,4.6,13.7,"00:56:24",1
"20/04/28","01:10",0.0,10.2,71.7,1013.0,329.2,2.3,3.9,338.0,0.00,5.4,13.8,"01:05:08",1
"20/04/28","01:20",0.0,10.5,71.1,1012.8,339.5,1.8,2.8,316.6,0.00,5.5,13.6,"01:17:20",1
"20/04/28","01:30",0.0,10.5,70.8,1013.0,338.3,1.7,2.4,314.3,0.00,5.5,13.5,"01:24:40",1
"20/04/28","01:40",0.0,10.2,70.6,1013.0,321.2,1.6,2.6,340.0,0.00,5.1,13.7,"01:32:56",1
"20/04/28","01:50",0.0,9.8,71.3,1013.0,311.1,1.5,2.2,326.3,0.00,4.9,13.5,"01:47:52",1
"20/04/28","02:00",0.0,10.0,71.9,1012.8,341.7,1.2,2.2,329.4,0.00,5.2,13.4,"01:50:08",1
"20/04/28","02:10",0.0,10.2,71.4,1012.8,1.1,1.1,2.1,352.5,0.00,5.3,13.5,"02:09:36",1
"20/04/28","02:20",0.0,10.3,70.9,1012.8,330.7,1.3,2.7,317.5,0.00,5.3,13.4,"02:19:04",1
"20/04/28","02:30",0.0,10.0,71.1,1012.6,320.2,1.7,2.4,324.4,0.00,5.0,13.3,"02:21:04",1
"20/04/28","02:40",0.0,9.8,71.8,1012.6,312.5,1.6,2.1,322.7,0.00,5.0,13.4,"02:32:48",1
"20/04/28","02:50",0.0,9.5,72.3,1013.0,283.0,0.8,1.3,288.4,0.00,4.8,13.4,"02:46:00",1
"20/04/28","03:00",0.0,9.5,73.1,1012.8,319.9,1.5,2.2,323.6,0.00,5.0,13.2,"02:56:56",1
"20/04/28","03:10",0.0,9.5,73.5,1012.8,334.0,2.1,2.4,337.0,0.00,5.0,13.2,"03:02:16",1
"20/04/28","03:20",0.0,9.0,74.3,1012.8,314.6,1.8,2.2,316.1,0.00,4.7,13.2,"03:10:08",1
"20/04/28","03:30",0.0,9.1,75.2,1013.0,320.0,2.0,3.2,339.7,0.00,5.0,13.0,"03:28:24",1
"20/04/28","03:40",0.0,9.1,75.8,1012.8,327.1,2.6,4.1,316.4,0.00,5.1,13.0,"03:34:00",1
"20/04/28","03:50",0.0,8.8,76.3,1012.8,327.9,2.2,3.4,336.9,0.00,4.9,13.1,"03:42:32",1
"20/04/28","04:00",0.0,8.5,77.0,1012.3,325.3,2.6,3.6,320.6,0.00,4.7,13.1,"03:59:20",1
"20/04/28","04:10",0.0,8.5,77.4,1012.6,324.9,2.7,4.3,344.0,0.00,4.8,12.9,"04:05:44",1
"20/04/28","04:20",0.0,8.3,77.6,1012.8,326.6,2.2,3.3,329.4,0.00,4.7,12.8,"04:15:20",1
"20/04/28","04:30",0.0,8.4,77.7,1012.8,334.5,2.1,3.2,336.1,0.00,4.8,12.8,"04:23:44",1
"20/04/28","04:40",0.0,8.4,77.6,1012.8,331.1,2.2,3.6,339.2,0.00,4.8,12.9,"04:38:08",1
"20/04/28","04:50",0.0,8.2,78.1,1013.0,329.8,2.5,3.7,321.6,0.00,4.7,12.9,"04:49:44",1
"20/04/28","05:00",0.0,8.5,78.7,1012.8,328.3,3.4,5.1,325.4,0.00,5.1,12.8,"04:57:20",1
"20/04/28","05:10",0.0,8.3,79.2,1013.0,329.4,3.0,5.1,329.9,0.00,5.0,12.7,"05:07:28",1
"20/04/28","05:20",0.0,8.1,79.6,1013.5,319.3,2.6,4.0,331.4,0.00,4.8,12.7,"05:16:08",1
"20/04/28","05:30",0.0,7.8,79.9,1013.3,310.2,2.6,4.1,330.5,0.00,4.6,12.6,"05:26:40",1
"20/04/28","05:40",0.0,7.8,79.9,1013.8,312.9,2.3,3.9,328.6,0.00,4.6,12.5,"05:30:16",1
"20/04/28","05:50",0.0,7.8,79.6,1013.8,316.2,2.2,3.7,324.9,0.00,4.5,12.6,"05:42:40",1
"20/04/28","06:00",0.0,7.8,79.4,1013.5,324.8,1.7,3.7,329.7,0.01,4.5,12.5,"05:51:52",1
"20/04/28","06:10",0.0,8.0,79.7,1013.5,328.9,2.1,3.3,312.6,0.02,4.8,12.7,"06:08:16",1
"20/04/28","06:20",0.0,8.7,79.4,1013.8,323.7,2.6,3.9,315.7,0.04,5.4,12.6,"06:15:36",1
"20/04/28","06:30",0.0,9.3,78.5,1014.2,317.0,2.0,2.7,333.7,0.04,5.8,12.5,"06:20:24",1
"20/04/28","06:40",0.0,10.2,77.1,1014.5,333.9,1.0,2.1,323.9,0.07,6.4,12.6,"06:33:36",1
"20/04/28","06:50",0.0,11.0,74.8,1014.5,333.5,1.0,1.9,344.7,0.09,6.7,12.5,"06:49:04",1
"20/04/28","07:00",0.0,11.4,72.4,1014.7,327.7,1.0,1.9,338.6,0.09,6.7,12.7,"06:51:36",1
"20/04/28","07:10",0.0,11.6,69.7,1014.9,223.6,0.3,1.2,308.6,0.11,6.3,12.8,"07:00:08",1
"20/04/28","07:20",0.0,12.5,67.3,1014.9,346.6,0.5,1.6,319.3,0.16,6.7,12.9,"07:16:56",1
"20/04/28","07:30",0.0,12.8,64.1,1014.7,71.9,0.7,1.7,127.0,0.19,6.2,13.1,"07:26:00",1
"20/04/28","07:40",0.0,13.4,63.0,1014.7,198.8,0.6,1.4,115.9,0.22,6.5,13.0,"07:33:04",1
"20/04/28","07:50",0.0,14.3,61.0,1014.7,276.1,0.8,1.3,239.8,0.25,6.9,13.3,"07:44:00",1
"20/04/28","08:00",0.0,14.6,60.0,1014.9,247.8,1.0,2.1,243.6,0.27,7.0,13.2,"07:50:24",1
"20/04/28","08:10",0.0,14.8,59.0,1015.4,186.7,0.8,2.4,142.7,0.30,6.9,13.3,"08:02:08",1
"20/04/28","08:20",0.0,15.7,58.2,1014.7,256.2,1.0,3.1,330.1,0.33,7.6,13.6,"08:19:20",1
"20/04/28","08:30",0.0,15.7,56.6,1014.7,267.2,1.3,3.4,338.2,0.36,7.2,13.6,"08:20:16",1
"20/04/28","08:40",0.0,15.8,56.2,1014.2,343.2,2.6,5.8,331.2,0.38,7.1,13.8,"08:32:32",1
"20/04/28","08:50",0.0,16.3,54.8,1014.2,351.1,1.7,4.0,335.2,0.41,7.2,13.8,"08:43:12",1
"20/04/28","09:00",0.0,16.5,52.5,1014.5,2.5,1.8,5.0,356.0,0.45,6.8,13.9,"08:52:24",1
"20/04/28","09:10",0.0,17.6,51.8,1014.5,323.6,1.5,4.8,337.7,0.49,7.6,14.3,"09:02:08",1
"20/04/28","09:20",0.0,16.3,50.0,1014.5,300.7,1.6,3.6,305.4,0.18,5.9,14.3,"09:15:52",1
"20/04/28","09:30",0.0,16.4,51.5,1014.7,294.2,1.6,3.5,265.5,0.41,6.4,14.5,"09:28:56",1
"20/04/28","09:40",0.0,16.1,50.2,1014.5,303.9,2.0,4.5,345.3,0.22,5.8,14.8,"09:37:36",1
"20/04/28","09:50",0.0,17.0,49.0,1014.2,294.3,1.7,4.0,289.2,0.48,6.3,14.7,"09:47:34",1
"20/04/28","10:00",0.0,16.9,46.7,1014.2,286.1,2.2,5.1,341.7,0.38,5.5,14.8,"09:58:12",1
"20/04/28","10:10",0.0,17.8,47.3,1014.0,305.7,1.8,4.7,342.3,0.50,6.5,14.9,"10:00:58",1
"20/04/28","10:20",0.0,18.2,46.9,1014.0,307.9,2.0,4.1,276.4,0.51,6.7,15.2,"10:16:42",1
"20/04/28","10:30",0.0,17.8,46.7,1014.0,310.6,2.3,4.4,349.5,0.46,6.3,15.2,"10:27:20",1
"20/04/28","10:40",0.0,17.6,47.4,1014.2,307.3,2.6,4.5,312.3,0.45,6.3,15.3,"10:30:08",1
"20/04/28","10:50",0.0,18.1,43.2,1013.8,318.4,2.8,8.1,346.4,0.56,5.4,15.4,"10:40:40",1
"20/04/28","11:00",0.0,17.7,44.7,1013.8,292.9,2.7,5.1,323.0,0.48,5.6,15.6,"10:52:24",1
"20/04/28","11:10",0.0,18.8,45.2,1013.8,293.3,2.3,4.9,333.0,0.64,6.7,16.0,"11:06:40",1
"20/04/28","11:20",0.0,17.3,42.9,1013.8,293.7,3.0,6.6,325.3,0.22,4.6,15.8,"11:13:04",1
"20/04/28","11:30",0.0,18.4,43.7,1013.5,278.9,2.2,5.2,232.1,0.65,5.9,16.1,"11:24:24",1
"20/04/28","11:40",0.0,18.3,40.6,1013.3,310.9,2.0,4.9,332.5,0.38,4.7,16.1,"11:30:02",1
"20/04/28","11:50",0.0,19.0,40.0,1013.3,318.4,2.5,6.7,339.1,0.67,5.1,16.3,"11:40:32",1
"20/04/28","12:00",0.0,19.0,37.2,1013.0,285.3,2.6,4.8,344.3,0.63,4.1,16.6,"11:51:28",1
"20/04/28","12:10",0.0,19.1,38.1,1012.8,276.3,2.7,4.9,290.7,0.61,4.5,16.7,"12:05:04",1
"20/04/28","12:20",0.0,19.0,38.0,1012.6,317.7,3.5,7.2,332.4,0.52,4.4,16.8,"12:13:36",1
"20/04/28","12:30",0.0,17.8,44.0,1012.6,354.4,3.7,7.0,342.5,0.30,5.4,16.8,"12:23:04",1
"20/04/28","12:40",0.0,18.1,43.6,1013.0,0.2,2.8,6.5,335.9,0.50,5.6,17.1,"12:35:28",1
"20/04/28","12:50",0.0,18.2,40.3,1012.3,357.9,2.3,7.5,58.7,0.38,4.5,17.0,"12:43:04",1
"20/04/28","13:00",0.0,18.2,39.1,1012.8,325.7,2.5,6.7,346.4,0.21,4.1,17.1,"12:58:40",1
"20/04/28","13:10",0.0,18.6,43.9,1012.8,358.4,2.3,5.7,350.2,0.56,6.1,16.9,"13:08:32",1
"20/04/28","13:20",0.0,18.4,43.9,1012.3,356.9,2.8,8.9,340.7,0.45,5.9,16.8,"13:11:20",1
"20/04/28","13:30",0.0,19.0,44.9,1012.3,332.8,1.6,4.2,342.9,0.52,6.8,17.1,"13:20:16",1
"20/04/28","13:40",0.0,19.5,38.6,1011.9,292.8,1.5,5.0,358.9,0.57,5.1,17.1,"13:36:56",1
"20/04/28","13:50",0.0,19.5,38.3,1012.1,291.6,2.1,4.8,346.0,0.46,5.0,17.1,"13:48:08",1
"20/04/28","14:00",0.0,18.6,39.7,1011.9,349.9,2.2,4.9,5.4,0.27,4.7,17.0,"13:59:44",1
"20/04/28","14:10",0.0,19.7,39.9,1011.6,327.4,1.6,3.3,342.6,0.51,5.7,17.1,"14:04:08",1
"20/04/28","14:20",0.0,18.6,39.4,1011.4,325.0,2.1,5.8,340.5,0.15,4.6,17.0,"14:19:12",1
"20/04/28","14:30",0.0,17.9,38.9,1011.6,5.8,2.1,4.2,50.2,0.14,3.8,17.0,"14:22:40",1
"20/04/28","14:40",0.0,19.0,40.3,1011.4,330.8,3.0,5.8,339.4,0.40,5.3,17.0,"14:35:20",1
"20/04/28","14:50",0.0,19.2,40.6,1011.6,347.9,2.3,5.6,359.0,0.34,5.5,17.1,"14:45:20",1
"20/04/28","15:00",0.0,18.5,40.4,1011.2,345.4,2.6,4.4,317.4,0.20,4.8,17.0,"14:53:12",1
"20/04/28","15:10",0.0,19.5,37.6,1011.4,335.9,3.2,7.2,331.3,0.45,4.7,17.2,"15:03:04",1
"20/04/28","15:20",0.0,18.5,39.9,1011.4,3.2,2.8,6.2,344.6,0.29,4.7,16.9,"15:12:48",1
"20/04/28","15:30",0.0,18.6,41.2,1011.2,354.2,2.5,5.2,35.3,0.26,5.2,17.1,"15:20:08",1
"20/04/28","15:40",0.0,18.1,41.3,1011.4,341.4,3.7,7.0,311.8,0.29,4.8,17.2,"15:31:20",1
"20/04/28","15:50",0.0,18.3,40.5,1011.9,345.7,3.4,6.2,346.9,0.32,4.7,17.1,"15:49:52",1
"20/04/28","16:00",0.0,17.0,42.4,1012.1,340.9,4.2,8.2,347.6,0.12,4.2,16.8,"15:56:56",1
"20/04/28","16:10",0.0,18.0,41.9,1011.6,351.7,2.7,7.2,343.4,0.27,4.9,17.0,"16:01:20",1
"20/04/28","16:20",0.0,17.8,40.2,1012.3,345.6,3.7,7.2,342.3,0.23,4.1,17.0,"16:13:04",1
"20/04/28","16:30",0.0,17.1,39.7,1011.9,341.5,3.5,8.1,347.7,0.14,3.3,16.9,"16:28:32",1
"20/04/28","16:40",0.0,17.2,40.1,1012.1,337.1,3.9,6.3,348.8,0.17,3.6,16.7,"16:37:04",1
"20/04/28","16:50",0.0,17.3,38.2,1012.1,342.3,3.1,5.6,333.8,0.15,3.0,16.8,"16:42:56",1
"20/04/28","17:00",0.0,17.1,37.7,1012.1,339.6,3.1,6.5,346.8,0.12,2.6,16.7,"16:59:44",1
"20/04/28","17:10",0.0,16.6,37.1,1012.3,339.2,4.0,6.8,325.7,0.10,1.9,16.6,"17:04:24",1
"20/04/28","17:20",0.0,16.4,36.6,1012.3,335.4,3.7,7.5,331.8,0.08,1.6,16.6,"17:14:32",1
"20/04/28","17:30",0.0,16.3,35.3,1012.8,346.5,2.7,5.8,341.1,0.06,1.0,16.2,"17:22:00",1
"20/04/28","17:40",0.0,16.0,35.6,1012.8,339.2,2.7,5.2,343.4,0.03,0.8,16.3,"17:32:40",1
"20/04/28","17:50",0.0,15.6,34.9,1013.3,338.4,3.5,6.2,315.7,0.01,0.2,16.2,"17:43:12",1
"20/04/28","18:00",0.0,15.2,33.6,1012.6,341.6,2.6,4.7,341.3,0.00,-0.7,16.2,"17:51:12",1
"20/04/28","18:10",0.0,14.8,34.1,1012.8,339.0,2.8,4.5,326.4,0.00,-0.8,16.2,"18:09:52",1
"20/04/28","18:20",0.0,14.5,34.0,1013.3,327.6,2.8,4.3,334.6,0.00,-1.1,15.8,"18:16:08",1
"20/04/28","18:30",0.0,14.1,34.9,1013.0,324.2,2.1,3.2,325.9,0.00,-1.1,15.7,"18:23:28",1
"20/04/28","18:40",0.0,13.6,37.2,1012.8,295.1,1.5,2.4,314.6,0.00,-0.7,15.8,"18:30:16",1
"20/04/28","18:50",0.0,13.3,38.3,1013.0,296.9,1.6,2.4,283.0,0.00,-0.6,15.6,"18:42:40",1
"20/04/28","19:00",0.0,12.3,46.1,1013.0,332.9,2.1,3.5,333.5,0.00,1.1,15.5,"18:56:14",1
"20/04/28","19:10",0.0,11.6,46.0,1013.0,329.7,2.7,3.5,321.0,0.00,0.4,15.5,"19:09:50",1
"20/04/28","19:20",0.0,12.2,43.1,1013.3,320.9,2.8,4.5,328.5,0.00,0.1,15.3,"19:17:30",1
"20/04/28","19:30",0.0,12.1,43.3,1013.5,316.2,2.6,3.5,311.5,0.00,0.0,15.2,"19:23:42",1
"20/04/28","19:40",0.0,11.5,47.1,1013.3,332.4,2.5,3.1,337.0,0.00,0.7,15.1,"19:34:10",1
"20/04/28","19:50",0.0,10.6,51.8,1013.5,331.7,2.5,3.4,337.8,0.00,1.1,14.8,"19:47:12",1
"20/04/28","20:00",0.0,10.2,52.7,1013.8,330.6,2.7,3.4,315.2,0.00,1.0,14.8,"19:50:08",1
"20/04/28","20:10",0.0,10.5,50.9,1013.8,328.0,3.0,4.4,344.2,0.00,0.8,14.8,"20:03:44",1
"20/04/28","20:20",0.0,10.4,51.0,1013.8,328.5,3.1,4.2,328.6,0.00,0.7,14.6,"20:12:40",1
"20/04/28","20:30",0.0,10.1,51.4,1013.5,331.5,3.0,4.3,327.3,0.00,0.6,14.3,"20:20:56",1
"20/04/28","20:40",0.0,9.9,52.3,1014.0,334.7,3.0,4.4,337.1,0.00,0.6,14.6,"20:33:44",1
"20/04/28","20:50",0.0,9.9,52.4,1014.2,334.1,2.5,3.5,341.8,0.00,0.7,14.4,"20:44:08",1
"20/04/28","21:00",0.0,9.8,52.8,1014.2,334.0,2.1,3.5,340.6,0.00,0.7,14.2,"20:50:56",1
"20/04/28","21:10",0.0,9.6,53.5,1014.0,329.3,2.1,3.2,337.4,0.00,0.7,14.3,"21:03:36",1
"20/04/28","21:20",0.0,9.4,53.9,1014.0,328.2,2.1,2.7,336.9,0.00,0.6,14.2,"21:10:40",1
"20/04/28","21:30",0.0,9.0,53.8,1013.8,297.8,1.5,2.4,323.5,0.00,0.2,14.1,"21:20:48",1
"20/04/28","21:40",0.0,9.0,55.4,1014.0,273.5,1.5,2.4,318.8,0.00,0.6,14.0,"21:39:36",1
"20/04/28","21:50",0.0,8.7,55.6,1014.2,288.8,1.8,2.2,296.3,0.00,0.4,13.9,"21:42:24",1
"20/04/28","22:00",0.0,8.9,57.0,1014.2,276.7,2.2,2.7,265.4,0.00,0.9,13.8,"21:51:12",1
"20/04/28","22:10",0.0,8.6,57.6,1014.2,300.5,1.8,2.8,298.9,0.00,0.8,13.7,"22:00:02",1
"20/04/28","22:20",0.0,8.2,59.5,1014.2,322.4,2.1,2.9,342.5,0.00,0.8,13.7,"22:11:20",1
"20/04/28","22:30",0.0,7.7,61.1,1014.5,299.4,2.2,3.3,313.1,0.00,0.7,13.6,"22:27:20",1
"20/04/28","22:40",0.0,7.4,61.6,1014.2,293.0,1.5,1.9,316.5,0.00,0.6,13.4,"22:30:16",1
"20/04/28","22:50",0.0,7.4,62.4,1014.5,300.7,2.0,2.6,311.9,0.00,0.7,13.4,"22:49:36",1
"20/04/28","23:00",0.0,7.4,62.8,1014.5,307.0,2.0,2.7,313.1,0.00,0.8,13.2,"22:52:32",1
"20/04/28","23:10",0.0,7.9,61.8,1014.5,319.4,1.8,2.8,321.4,0.00,1.1,13.1,"23:00:16",1
"20/04/28","23:20",0.0,7.9,60.9,1014.7,313.3,1.6,2.7,311.7,0.00,0.9,13.2,"23:14:48",1
"20/04/28","23:30",0.0,7.7,60.7,1014.7,305.0,1.7,3.4,307.7,0.00,0.6,12.8,"23:29:12",1
"20/04/28","23:40",0.0,7.9,60.2,1014.5,322.1,2.7,4.0,338.3,0.00,0.7,13.1,"23:30:40",1
"20/04/28","23:50",0.0,7.7,60.8,1014.2,314.2,2.6,3.4,323.7,0.00,0.7,13.0,"23:43:52",1
"20/04/28","24:00",0.0,7.5,61.3,1014.2,301.2,2.0,2.7,313.4,0.00,0.6,13.0,"23:50:08",1
